Погода в Осташкове

Погода в Осташкове : погода сейчас, прогноз погоды и архив. Всё, что Вы хотите узнать о погоде в Осташкове!

Поиск расширенной информации на нашем сайте:

Другие новости

Новости СМИ2

Главная страница сайта

Новости сайта

03.07.2017

Напоминаем, что на нашем специализированном сайте Метеоцентр.Азия вы можете получить высокодетализированные автоматические прогнозы погоды по пунктам России, СНГ и мира в авиационном формате (включающие направление и скорость ветра, видимость, явления погоды, количество и форму облачности, нижнюю и верхнюю границу облачности).


Погода в Осташкове - сегодня

Время (UTC), дата Ветер
(°,м/с) 
Видим.   Явления Облачность Т
(°С)
Тd
(°С)
f(%) Тe
(°С)
Pmin
(гПа)
dP
(гПа)
Po
(мм)
O2
(г/м3)
Тmin Tmax R s Состояние
почвы
09 16.08.17 130 (ЮВ) 10 км    ясно 
+20.9 +9 46 +21  1027.8  -0.4  752  280           
12 16.08.17 180 (Ю) 10 км    3/0 средняя 
[Ac trans]
+23.1 +10 43 +24  1026.4  -1.2  751  277           
15 16.08.17 180 (Ю) 10 км    4/4 600 м 
[Sc]
+21.7 +11.1 51 +24  1025.7  -0.8  750  278           
18 16.08.17 тихо ()   10 км    8/8 600 м 
[Sc]
+16.4 +12.1 76 +20  1025.7  -0.4  750  283    +23.7       
21 16.08.17 тихо ()   4000 м  дымка  3/0 средняя 
[Ac trans]
+11.6 +10.3 92 +13  1026.1  750  288           
00 17.08.17 тихо ()   4000 м  дымка  4/0 средняя 
[Ac trans]
+12.3 +10.8 91 +15  1026.1  750  287           
03 17.08.17 тихо ()   4000 м  дымка  ясно 
+11.3 +10.9 97 +14  1025.7  -0.5  750  288  +10.9         
06 17.08.17 170 (Ю) 10 км    ясно 
+20.1 +14 68 +27  1025.1  0.2  750  279  +10.9        влажная 
09 17.08.17 160 (Ю) 10 км    ясно 
+24.3 +14.9 56 +33  1024  -0.8  749  274           
12 17.08.17 150 (ЮВ) 10 км    5/0 средняя 
[Ac trans]
+24.3 +13.2 50 +30  1023.5  -0.5  749  275           
15 17.08.17 160 (Ю) 10 км    6/0 средняя 
[Ac trans]
+23.5 +16 63 +34  1022.6  -0.9  748  274           
18 17.08.17 тихо ()   10 км    4/0 средняя 
[Ac trans]
+18.7 +15.6 82 +29  1022.6  -0.4  748  279    +26.3       
21 17.08.17 150 (ЮВ) 4000 м  дымка  3/0 средняя 
[Ac trans]
+16.3 +14.4 89 +26  1022.9  0.1  748  281           
00 18.08.17 тихо ()   10 км    3/0 средняя 
[Ac trans]
+16.8 +14 84 +24  1022.2  -0.6  748  281           
03 18.08.17 тихо ()   4000 м  дымка  8/0 средняя 
[Ac trans]
+15.8 +14.1 90 +23  1021.7  -0.6  747  282  +15.2         
06 18.08.17 180 (Ю) 10 км    6/0 средняя 
[Ac trans]
+20.3 +16.5 79 +32  1021.2  -0.1  747  277  +15.2        сухая 
09 18.08.17 160 (Ю) 10 км    6/0 средняя 
[Ac trans]
+23.9 +18.1 70 +39  1020.7  -0.2  747  273           
12 18.08.17 160 (Ю) 10 км    4/0 средняя 
[Ac trans]
+27.5 +17.8 55 +42  1019.1  -1.2  746  269           
15 18.08.17 230 (ЮЗ) 2{12}  10 км    8/0 средняя 
[Ac trans]
+19.5 +15 75 +30  1020.7  0.9  747  278           
18 18.08.17 тихо () {12}  4000 м  дымка  8/0 средняя 
[Ac trans]
+17.3 +15.4 89 +27  1020  -0.8  746  279    +28.1       
21 18.08.17 150 (ЮВ) 4000 м  дымка{ливн. осадки}  10/10 300 м 
[St]
+16.4 +15.5 94 +28  1019.2  -0.9  745  280           
00 19.08.17 360 (С) 2{10}  4000 м  дымка{ливн. осадки}  10/10 300 м 
[St]
+16.7 +15.9 95 +28  1019.4  0.2  746  280           
03 19.08.17 тихо ()   4000 м  дымка{ливн. осадки}  8/8 600 м 
[Sc]
+16 +15.6 97 +26  1018.9  -0.5  745  280  +15.9    0.8     
06 19.08.17 170 (Ю) 10 км  {ливн. осадки}  6/0 средняя 
[Ac trans]
+21.1 +16.4 75 +32  1018.6  0.1  745  275  +15.9    0.8    влажная 
09 19.08.17 180 (Ю) 10 км    4/0 верхняя 
[Ci fib]
+26.7 +16.6 54 +38  1018.1  745  270           
Время (UTC), дата Ветер
(°,м/с) 
Видим.   Явления Облачность Т
(°С)
Тd
(°С)
f(%) Тe
(°С)
Pmin
(гПа)
dP
(гПа)
Po
(мм)
O2
(г/м3)
Тmin Tmax R s Состояние
почвы

Для получения пояснительной информации подведите курсор к названию столбца.

ПОГОДА в Осташкове - архив

Всё, что Вы хотите узнать о погоде в Осташкове - удобно и подробно!

Выберите нужную дату (начиная с 1 января 2015* года) и нажмите кнопку "Найти".
Будут отображены архивные сводки погоды по пункту Осташков, начиная с указанной даты.


Отображать данные в формате CSV (для использования в таблицах Excel)


Внимание! Наш архив погоды предназначен исключительно для личного некоммерческого использования в познавательных целях. Если Вам необходимы официальные справки о состоянии погоды (для производственных, юридических, коммерческих и т.п. целей), обращайтесь в органы Росгидромета.

*Примечание: данная дата относится к архиву по метеостанциям СССР (Россия, СНГ, Балтия).
Архив по метеостанциям Зарубежной Европы и Азии (кроме Китая) хранится 10 дней, по другим регионам земного шара (Китай, Африка, Америка, Австралия, Океания) - 1 день.

Осташков - район местоположения метеостанции


Название, широта, долгота, высота метеостанции:
Осташков 57.1°ш. 33.1°д. 218 м над ур. моря [Российская Федерация]

Дополнительная информация

В oтличие oт бoльшинства пoгoдных сайтoв мы публикуем пoдрoбную метеoинфoрмацию в детальнoм прoфессиoнальнoм фoрмате.

Характеристики температуры и влажнoсти вoздуха измеряются на высoте 2 м в тени вдали oт зданий и деревьев.
Скoрoсть ветра измеряется на высoте 10 м (на урoвне рoста челoвека скoрoсть ветра ниже в 1.5-2 раза). Если метеoстанция нахoдится в гoрoде или в лесу, тo скoрoсть ветра занижена на 2-4 м/с пo сравнению с oткрытым местoм. Скoрoсть ветра над акватoриями крупных рек и oзёр, а также на вершинах хoлмoв на 2-5 м/с выше, чем в oбычных услoвиях.
Атмoсфернoе давление в разных тoчках местнoсти мoжет значительнo oтличаться oт давления на метеoстанции, в зависимoсти oт услoвий рельефа (при пoдъёме на 10 м давление пoнижается примернo на 1 мм рт.ст.).